When you browse on this site, cookies collect data to enhance your experience and personalize the content and advertising you see.
Visit our Privacy Policy to learn more. By continuing to use the site, you agree to this use of cookies and data.
  • In Portugal
  • List of Countries
  • For 7 days
  • Water Temperature
  • Satellite Maps
  • Weather Map
  • Weather Widgets
  • user-avatar
    Login

    Hourly Weather Taba

    Today, 23 May, Thursday

    Time Temperature Precipitation Wind Pressure Humidity
    00:00 +30°C° 0 mm 2 mps 695 mmHg 12%
    01:00 +29°C° 0 mm 2 mps 694 mmHg 13%
    02:00 +28°C° 0 mm 2 mps 694 mmHg 14%
    03:00 +28°C° 0 mm 1 mps 694 mmHg 15%
    04:00 +27°C° 0 mm 1 mps 694 mmHg 16%
    05:00 +27°C° 0 mm 1 mps 694 mmHg 17%
    06:00 +29°C° 0 mm 2 mps 694 mmHg 15%
    07:00 +31°C° 0 mm 2 mps 695 mmHg 13%
    08:00 +34°C° 0 mm 3 mps 695 mmHg 11%
    09:00 +36°C° 0 mm 3 mps 695 mmHg 10%
    10:00 +37°C° 0 mm 4 mps 695 mmHg 9%
    11:00 +38°C° 0 mm 4 mps 695 mmHg 9%
    12:00 +39°C° 0 mm 3 mps 695 mmHg 8%
    13:00 +39°C° 0 mm 3 mps 695 mmHg 8%
    14:00 +40°C° 0 mm 3 mps 694 mmHg 8%
    15:00 +39°C° 0 mm 3 mps 694 mmHg 8%
    16:00 +39°C° 0 mm 3 mps 694 mmHg 8%
    17:00 +39°C° 0 mm 2 mps 694 mmHg 8%
    18:00 +37°C° 0 mm 2 mps 693 mmHg 9%
    19:00 +35°C° 0 mm 1 mps 693 mmHg 10%
    20:00 +33°C° 0 mm 1 mps 693 mmHg 11%
    21:00 +32°C° 0 mm 1 mps 693 mmHg 12%
    22:00 +31°C° 0 mm 1 mps 693 mmHg 13%
    23:00 +29°C° 0 mm 0 mps 693 mmHg 13%

    Tomorrow, 24 May, Friday

    Time Temperature Precipitation Wind Pressure Humidity
    00:00 +28°C° 0 mm 0 mps 693 mmHg 14%
    01:00 +28°C° 0 mm 0 mps 692 mmHg 14%
    02:00 +27°C° 0 mm 0 mps 692 mmHg 15%
    03:00 +29°C° 0 mm 1 mps 692 mmHg 15%
    04:00 +28°C° 0 mm 1 mps 692 mmHg 15%
    05:00 +28°C° 0 mm 1 mps 692 mmHg 16%
    06:00 +30°C° 0 mm 1 mps 692 mmHg 14%
    07:00 +33°C° 0 mm 1 mps 693 mmHg 12%
    08:00 +35°C° 0 mm 1 mps 693 mmHg 10%
    09:00 +37°C° 0 mm 2 mps 693 mmHg 9%
    10:00 +38°C° 0 mm 2 mps 694 mmHg 8%
    11:00 +39°C° 0 mm 3 mps 694 mmHg 8%
    12:00 +41°C° 0 mm 4 mps 693 mmHg 8%
    13:00 +41°C° 0 mm 5 mps 693 mmHg 7%
    14:00 +42°C° 0 mm 5 mps 693 mmHg 7%
    15:00 +41°C° 0 mm 5 mps 693 mmHg 8%
    16:00 +40°C° 0 mm 4 mps 692 mmHg 8%
    17:00 +39°C° 0 mm 3 mps 692 mmHg 8%
    18:00 +37°C° 0 mm 3 mps 692 mmHg 10%
    19:00 +36°C° 0 mm 2 mps 692 mmHg 11%
    20:00 +33°C° 0 mm 1 mps 692 mmHg 12%
    21:00 +32°C° 0 mm 1 mps 692 mmHg 14%
    22:00 +31°C° 0 mm 1 mps 692 mmHg 16%
    23:00 +30°C° 0 mm 1 mps 693 mmHg 18%

    Day after tomorrow, 25 May, Saturday

    Time Temperature Precipitation Wind Pressure Humidity
    00:00 +30°C° 0 mm 1 mps 692 mmHg 21%
    01:00 +29°C° 0 mm 1 mps 692 mmHg 23%
    02:00 +28°C° 0 mm 2 mps 692 mmHg 26%
    03:00 +27°C° 0 mm 2 mps 692 mmHg 30%
    04:00 +26°C° 0 mm 2 mps 692 mmHg 34%
    05:00 +26°C° 0 mm 3 mps 692 mmHg 38%
    06:00 +27°C° 0 mm 3 mps 692 mmHg 37%
    07:00 +28°C° 0 mm 3 mps 693 mmHg 36%
    08:00 +29°C° 0 mm 3 mps 693 mmHg 35%
    09:00 +30°C° 0 mm 3 mps 694 mmHg 30%
    10:00 +33°C° 0 mm 3 mps 694 mmHg 25%
    11:00 +35°C° 0 mm 2 mps 694 mmHg 20%
    12:00 +36°C° 0 mm 2 mps 694 mmHg 18%
    13:00 +37°C° 0 mm 2 mps 693 mmHg 17%
    14:00 +38°C° 0 mm 2 mps 693 mmHg 16%
    15:00 +37°C° 0 mm 3 mps 693 mmHg 17%
    16:00 +37°C° 0 mm 3 mps 693 mmHg 19%
    17:00 +36°C° 0 mm 3 mps 692 mmHg 20%
    18:00 +34°C° 0 mm 4 mps 693 mmHg 25%
    19:00 +32°C° 0 mm 4 mps 693 mmHg 30%
    20:00 +30°C° 0 mm 4 mps 693 mmHg 35%
    21:00 +29°C° 0 mm 4 mps 693 mmHg 37%
    22:00 +28°C° 0 mm 3 mps 693 mmHg 39%
    23:00 +27°C° 0 mm 3 mps 693 mmHg 41%

    26 May, Sunday

    Time Temperature Precipitation Wind Pressure Humidity
    00:00 +26°C° 0 mm 3 mps 693 mmHg 42%
    01:00 +26°C° 0 mm 3 mps 692 mmHg 43%
    02:00 +25°C° 0 mm 3 mps 692 mmHg 44%
    03:00 +25°C° 0 mm 3 mps 692 mmHg 44%
    04:00 +24°C° 0 mm 2 mps 692 mmHg 45%
    05:00 +24°C° 0 mm 2 mps 692 mmHg 45%
    06:00 +25°C° 0 mm 3 mps 692 mmHg 41%
    07:00 +26°C° 0 mm 3 mps 692 mmHg 37%
    08:00 +28°C° 0 mm 3 mps 693 mmHg 32%
    09:00 +29°C° 0 mm 3 mps 693 mmHg 29%
    10:00 +31°C° 0 mm 3 mps 693 mmHg 25%
    11:00 +34°C° 0 mm 3 mps 693 mmHg 22%
    12:00 +35°C° 0 mm 3 mps 693 mmHg 20%
    13:00 +36°C° 0 mm 3 mps 692 mmHg 18%
    14:00 +37°C° 0 mm 3 mps 692 mmHg 15%
    15:00 +37°C° 0 mm 3 mps 692 mmHg 15%
    16:00 +37°C° 0 mm 3 mps 692 mmHg 15%
    17:00 +36°C° 0 mm 4 mps 691 mmHg 15%
    18:00 +35°C° 0 mm 4 mps 692 mmHg 18%
    19:00 +33°C° 0 mm 4 mps 692 mmHg 21%
    20:00 +30°C° 0 mm 4 mps 692 mmHg 24%
    21:00 +30°C° 0 mm 3 mps 692 mmHg 26%
    22:00 +29°C° 0 mm 2 mps 692 mmHg 29%
    23:00 +28°C° 0 mm 2 mps 692 mmHg 31%

    27 May, Monday

    Time Temperature Precipitation Wind Pressure Humidity
    00:00 +27°C° 0 mm 2 mps 692 mmHg 32%
    01:00 +27°C° 0 mm 2 mps 691 mmHg 33%
    02:00 +26°C° 0 mm 2 mps 691 mmHg 35%
    03:00 +26°C° 0 mm 2 mps 691 mmHg 36%
    04:00 +25°C° 0 mm 2 mps 691 mmHg 38%
    05:00 +24°C° 0 mm 2 mps 691 mmHg 40%
    06:00 +26°C° 0 mm 2 mps 691 mmHg 35%
    07:00 +28°C° 0 mm 2 mps 692 mmHg 30%
    08:00 +30°C° 0 mm 2 mps 692 mmHg 25%
    09:00 +31°C° 0 mm 2 mps 692 mmHg 22%
    10:00 +34°C° 0 mm 2 mps 692 mmHg 19%
    11:00 +36°C° 0 mm 2 mps 692 mmHg 15%
    12:00 +37°C° 0 mm 2 mps 692 mmHg 14%
    13:00 +38°C° 0 mm 2 mps 692 mmHg 13%
    14:00 +39°C° 0 mm 2 mps 691 mmHg 12%
    15:00 +38°C° 0 mm 2 mps 691 mmHg 12%
    16:00 +38°C° 0 mm 2 mps 691 mmHg 13%
    17:00 +38°C° 0 mm 2 mps 691 mmHg 13%
    18:00 +36°C° 0 mm 3 mps 692 mmHg 17%
    19:00 +35°C° 0 mm 3 mps 692 mmHg 21%
    20:00 +33°C° 0 mm 3 mps 692 mmHg 24%
    21:00 +31°C° 0 mm 3 mps 692 mmHg 27%
    22:00 +30°C° 0 mm 2 mps 692 mmHg 30%
    23:00 +29°C° 0 mm 2 mps 692 mmHg 33%

    28 May, Tuesday

    Time Temperature Precipitation Wind Pressure Humidity
    00:00 +29°C° 0 mm 2 mps 692 mmHg 35%
    01:00 +28°C° 0 mm 2 mps 691 mmHg 36%
    02:00 +27°C° 0 mm 2 mps 691 mmHg 38%
    03:00 +27°C° 0 mm 2 mps 691 mmHg 38%
    04:00 +26°C° 0 mm 2 mps 691 mmHg 39%
    05:00 +26°C° 0 mm 2 mps 691 mmHg 40%
    06:00 +27°C° 0 mm 2 mps 692 mmHg 35%
    07:00 +29°C° 0 mm 2 mps 692 mmHg 29%
    08:00 +31°C° 0 mm 2 mps 692 mmHg 24%
    09:00 +32°C° 0 mm 2 mps 692 mmHg 21%
    10:00 +35°C° 0 mm 3 mps 692 mmHg 18%
    11:00 +36°C° 0 mm 3 mps 692 mmHg 15%
    12:00 +37°C° 0 mm 3 mps 692 mmHg 13%
    13:00 +38°C° 0 mm 3 mps 692 mmHg 12%
    14:00 +39°C° 0 mm 3 mps 692 mmHg 11%
    15:00 +38°C° 0 mm 4 mps 692 mmHg 11%
    16:00 +38°C° 0 mm 4 mps 692 mmHg 11%
    17:00 +37°C° 0 mm 4 mps 691 mmHg 11%
    18:00 +36°C° 0 mm 4 mps 692 mmHg 14%
    19:00 +34°C° 0 mm 4 mps 692 mmHg 17%
    20:00 +32°C° 0 mm 4 mps 692 mmHg 19%
    21:00 +30°C° 0 mm 3 mps 692 mmHg 20%
    22:00 +29°C° 0 mm 3 mps 692 mmHg 21%
    23:00 +29°C° 0 mm 2 mps 692 mmHg 23%
    Show more